This is the latest recevied weather packets stored in our database for station/object KC9MWQ-13. If no packets are shown the sender has not sent any weather packets the latest 10 day(s).
| Time | Temp. | Humidity | Pressure | Rain* | Wind** | Luminosity | Snow |
|---|---|---|---|---|---|---|---|
| 1777207906 | 9.44° C | 94% | 1019.5 hPa | 0 mm | - | 81 W/m² | - |
| 1777207600 | 9.44° C | 94% | 1019.6 hPa | 0 mm | - | 97 W/m² | - |
| 1777207296 | 9.44° C | 94% | 1019.3 hPa | 0 mm | - | 104 W/m² | - |
| 1777206990 | 9.44° C | 95% | 1019.3 hPa | 0 mm | - | 79 W/m² | - |
| 1777206686 | 9.44° C | 95% | 1019.2 hPa | 0 mm | - | 61 W/m² | - |
| 1777206381 | 9.44° C | 96% | 1019.1 hPa | 0 mm | - | 60 W/m² | - |
| 1777206077 | 9.44° C | 95% | 1019.1 hPa | 0 mm | - | 59 W/m² | - |
| 1777205773 | 9.44° C | 95% | 1019.2 hPa | 0 mm | - | 52 W/m² | - |
| 1777205470 | 9.44° C | 96% | 1019.1 hPa | 0 mm | - | 47 W/m² | - |
| 1777205165 | 9.44° C | 96% | 1018.8 hPa | 0 mm | - | 46 W/m² | - |
| 1777204856 | 9.44° C | 96% | 1019.1 hPa | 0 mm | - | 39 W/m² | - |
| 1777204551 | 9.44° C | 96% | 1018.7 hPa | 0 mm | - | 36 W/m² | - |
| 1777204248 | 9.44° C | 96% | 1018.7 hPa | 0 mm | - | 35 W/m² | - |
| 1777203943 | 9.44° C | 96% | 1018.5 hPa | 0 mm | - | 29 W/m² | - |
| 1777203638 | 9.44° C | 96% | 1018.7 hPa | 0 mm | - | 27 W/m² | - |
| 1777203334 | 8.89° C | 96% | 1018.6 hPa | 0 mm | - | 26 W/m² | - |
| 1777203031 | 8.89° C | 95% | 1018.7 hPa | 0 mm | - | 22 W/m² | - |
| 1777202727 | 8.89° C | 96% | 1018.7 hPa | 0 mm | - | 16 W/m² | - |
| 1777202426 | 8.89° C | 95% | 1018.7 hPa | 0 mm | - | 14 W/m² | - |
| 1777202121 | 8.89° C | 95% | 1018.5 hPa | 0 mm | - | 11 W/m² | - |
| 1777201817 | 8.89° C | 96% | 1018.5 hPa | 0 mm | - | 9 W/m² | - |
| 1777201514 | 8.89° C | 95% | 1018.3 hPa | 0 mm | - | 6 W/m² | - |
* Rain latest hour (hover to see other rain measurements)
** Current wind speed in m/s (hover to see current wind gust speed)